Regional Weather Roundup
Issued by NWS

Home | Current Version | Previous Version | Text Only | Print | Product List | Glossary On
Versions: 1 2 3 4 5 6 7 8 9 10 11 12 13 14 15 16 17 18 19 20 21 22 23 24 25 26 27
000
ASUS44 KJAN 290910
RWRMS

MISSISSIPPI HOURLY WEATHER ROUNDUP
NATIONAL WEATHER SERVICE JACKSON MS
400 AM CDT MON MAY 29 2017

NOTE: "FAIR: INDICATES FEW OR NO CLOUDS BELOW 12,000 FEET WITH NO
SIGNIFICANT WEATHER AND/OR OBSTRUCTIONS TO VISIBILITY.

MSZ001>002-007>008-010>013-018>021-025>028-034>036-291000-
NORTHWEST MISSISSIPPI

CITY           SKY/WX    TMP DP  RH WIND       PRES   REMARKS
BATESVILLE     TSTM      69  67  94 CALM      29.99S VSB 1
CLARKSDALE       N/A     70  70 100 MISG      29.96F
CLEVELAND      FAIR      69  69 100 SW5       29.94F
GREENWOOD      CLOUDY    68  64  87 SW5       29.94F
GREENVILLE       N/A    N/A N/A N/A MISG      29.94F
OXFORD         LGT RAIN  68  66  94 S7        29.99F
TUNICA         CLOUDY    68  64  88 CALM      29.96F
WINONA         FAIR      66  66 100 CALM      29.95F
$$

MSZ003>006-009-014>017-022>024-029>033-037>039-291000-
NORTHEAST MISSISSIPPI

CITY           SKY/WX    TMP DP  RH WIND       PRES   REMARKS
COLUMBUS AFB   CLOUDY    82  68  61 W17       29.93S
CORINTH        DRIZZLE   70  68  94 CALM      29.97S
GOLDN TRIANGLE CLOUDY    70  61  73 W3        29.96R
STARKVILLE     LGT RAIN  64  63  94 NW3       29.99F
TUPELO         CLOUDY    72  68  87 CALM      29.97F
$$

MSZ040-058-291000-
CENTRAL MISSISSIPPI

CITY           SKY/WX    TMP DP  RH WIND       PRES   REMARKS
JACKSON INTL   CLOUDY    67  63  87 CALM      29.92R
JACKSON HAWKNS MOCLDY    66  62  87 N9        29.93S
MADISON        FAIR      63  63 100 NW7       29.93R
MERIDIAN KEY   CLOUDY    68  67  96 S5        29.94F
MERIDIAN NAS   CLOUDY    68  63  84 S5        29.91F
VICKSBURG VKS  SUNNY     68  64  88 CALM      29.94F
$$

MSZ059>079-291000-
SOUTH MISSISSIPPI

CITY           SKY/WX    TMP DP  RH WIND       PRES   REMARKS
COLUMBIA       FAIR      66  63  88 E3        29.96F
HATTIESBURG    CLOUDY    69  66  90 NE5       29.96F
LAUREL         FAIR      66  66 100 E5        29.95F
MCCOMB         CLOUDY    65  62  90 CALM      29.94F
NATCHEZ        CLOUDY    65  64  97 VRB3      29.97F
PINE BELT      CLOUDY    66  63  88 NE3       29.97F
$$

MSZ080>082-291000-
COASTAL MISSISSIPPI

CITY           SKY/WX    TMP DP  RH WIND       PRES   REMARKS
BILOXI         LGT RAIN  75  70  83 NE8       29.96R
PASCAGOULA     TSTM      75  72  90 SE14      29.98R
GULFPORT       CLOUDY    73  69  87 NW7       29.96R
$$

LAZ007>009-015>016-023>026-291000-
NORTHEAST LOUISIANA

CITY           SKY/WX    TMP DP  RH WIND       PRES   REMARKS
BASTROP        FAIR      66  65  98 W3        29.96F
TALLULAH/VBURG CLOUDY    67  65  93 CALM      29.96F
VIDALIA        FAIR      65  65  98 CALM      29.95F
$$




USA.gov is the U.S. government's official web portal to all federal, state and local government web resources and services.